Saint Petersburg, FL

8:55 PM EST on January 21, 2017 (GMT -0500)
St. Petersburg

Weather History for KSPG - September, 2013

Change the Weather History Date:

Monday, September 9, 2013

  Actual Average Record
Temperature  
Mean Temperature 86 °F -  
Max Temperature 91 °F 89 °F 93 °F (1987)
Min Temperature 81 °F 76 °F 70 °F (1950)
Cooling Degree Days 21    
Growing Degree Days 36 (Base 50)    
Moisture  
Dew Point 74 °F    
Average Humidity 70    
Maximum Humidity 85    
Minimum Humidity 52    
Precipitation  
Precipitation 0.00 in - - ()
Sea Level Pressure  
Sea Level Pressure 29.97 in    
Wind  
Wind Speed 12 mph (East)    
Max Wind Speed 22 mph    
Max Gust Speed -    
Visibility 10 miles    
Events      
Averages and records for this station are not official NWS values.
T = Trace of Precipitation, MM = Missing Value Source: NWS Daily Summary

Daily Weather History Graph

Daily Weather History Graph

Search for Another Location

Airport or City:

Trip Planner

Search our weather history database for the weather conditions in past years. The results will help you decide how hot, cold, wet, or windy it might be!

Date:

Astronomy

Sep. 09, 2013 Rise Set
Actual Time 7:13 AM EDT 7:41 PM EDT
Civil Twilight 6:49 AM EDT 8:05 PM EDT
Nautical Twilight 6:21 AM EDT 8:32 PM EDT
Astronomical Twilight 5:53 AM EDT 9:00 PM EDT
Moon 11:07 AM EDT (9/9) 10:25 PM EDT (9/9)
Length of Visible Light 13h 15m
Length of Day
12h 28m
Waxing Crescent, 19% of the Moon is Illuminated
Sep 9
Waxing Crescent
Sep 12
First Quarter
Sep 19
Full
Sep 26
Last Quarter
Oct 4
New

Hourly Weather History & Observations

Time (EDT) Temp. Heat Index Dew Point Humidity Pressure Visibility Wind Dir Wind Speed Gust Speed Precip Events Conditions
12:53 AM 82.9 °F 89.4 °F 73.9 °F 74% 29.97 in 10.0 mi ESE 12.7 mph - N/A   Mostly Cloudy
1:53 AM 82.0 °F 88.6 °F 75.0 °F 79% 29.95 in 10.0 mi ESE 11.5 mph - N/A   Clear
2:53 AM 82.0 °F 88.6 °F 75.0 °F 79% 29.94 in 10.0 mi East 13.8 mph - N/A   Clear
3:53 AM 82.0 °F 89.4 °F 75.9 °F 82% 29.93 in 10.0 mi East 11.5 mph - N/A   Clear
4:53 AM 81.0 °F 87.3 °F 75.9 °F 85% 29.94 in 10.0 mi East 12.7 mph - N/A   Clear
5:53 AM 82.0 °F 89.4 °F 75.9 °F 82% 29.94 in 10.0 mi East 12.7 mph - N/A   Clear
6:53 AM 81.0 °F 87.3 °F 75.9 °F 85% 29.96 in 10.0 mi East 12.7 mph - N/A   Clear
7:53 AM 81.0 °F 87.3 °F 75.9 °F 85% 29.97 in 10.0 mi ENE 12.7 mph - N/A   Clear
8:53 AM 82.0 °F 89.4 °F 75.9 °F 82% 29.99 in 10.0 mi ENE 11.5 mph - N/A   Clear
9:53 AM 82.9 °F 90.2 °F 75.0 °F 77% 30.00 in 10.0 mi East 12.7 mph - N/A   Clear
10:53 AM 84.0 °F 91.9 °F 75.0 °F 74% 30.02 in 10.0 mi East 11.5 mph - N/A   Clear
11:53 AM 87.1 °F 95.4 °F 73.9 °F 65% 30.01 in 10.0 mi East 8.1 mph - N/A   Clear
12:53 PM 88.0 °F 95.6 °F 73.0 °F 61% 30.00 in 10.0 mi ENE 5.8 mph - N/A   Clear
1:53 PM 89.1 °F 96.0 °F 72.0 °F 57% 29.99 in 10.0 mi ENE 6.9 mph - N/A   Clear
2:53 PM 91.0 °F 97.6 °F 71.1 °F 52% 29.96 in 10.0 mi NE 5.8 mph - N/A   Clear
3:53 PM 91.0 °F 97.6 °F 71.1 °F 52% 29.95 in 10.0 mi ENE 4.6 mph - N/A   Clear
4:53 PM 91.9 °F 100.7 °F 73.0 °F 54% 29.94 in 10.0 mi NE 6.9 mph - N/A   Clear
5:53 PM 91.0 °F 98.2 °F 72.0 °F 53% 29.94 in 10.0 mi ENE 9.2 mph - N/A   Clear
6:53 PM 91.0 °F 99.3 °F 73.0 °F 55% 29.94 in 10.0 mi ENE 13.8 mph - N/A   Clear
7:53 PM 89.1 °F 97.0 °F 73.0 °F 59% 29.96 in 10.0 mi East 16.1 mph - N/A   Partly Cloudy
8:53 PM 88.0 °F 94.7 °F 72.0 °F 59% 29.97 in 10.0 mi East 17.3 mph - N/A   Clear
9:53 PM 86.0 °F 93.8 °F 73.9 °F 67% 30.01 in 10.0 mi East 20.7 mph - N/A   Clear
10:53 PM 84.9 °F 93.3 °F 75.0 °F 72% 30.02 in 10.0 mi East 21.9 mph - N/A   Clear
11:53 PM 82.9 °F 90.8 °F 75.9 °F 79% 30.03 in 10.0 mi East 18.4 mph - N/A   Clear